This is the latest recevied weather packets stored in our database for station/object OE3CJB-13. If no packets are shown the sender has not sent any weather packets the latest 10 day(s).
| Time | Temp. | Humidity | Pressure | Rain* | Wind** | Luminosity | Snow |
|---|---|---|---|---|---|---|---|
| 1777773642 | 6.67° C | 67% | 759.3 hPa | 0 mm | - | - | - |
| 1777772775 | 6.67° C | 67% | 760 hPa | 0 mm | - | - | - |
| 1777771816 | 6.67° C | 67% | 761.6 hPa | 0 mm | - | - | - |
| 1777770951 | 7.22° C | 66% | 763.2 hPa | 0 mm | - | - | - |
| 1777770042 | 7.22° C | 66% | 764.7 hPa | 0 mm | - | - | - |
| 1777769175 | 7.22° C | 65% | 767.1 hPa | 0 mm | - | - | - |
| 1777768215 | 7.78° C | 64% | 768.8 hPa | 0 mm | - | - | - |
| 1777767352 | 7.78° C | 63% | 771 hPa | 0 mm | - | - | - |
| 1777766490 | 7.78° C | 62% | 771.9 hPa | 0 mm | - | - | - |
| 1777765528 | 8.33° C | 61% | 772.7 hPa | 0 mm | - | - | - |
| 1777764665 | 8.33° C | 60% | 773.5 hPa | 0 mm | - | - | - |
| 1777763751 | 8.89° C | 59% | 773.5 hPa | 0 mm | - | - | - |
| 1777762841 | 9.44° C | 58% | 772.8 hPa | 0 mm | - | - | - |
| 1777761928 | 9.44° C | 57% | 772 hPa | 0 mm | - | - | - |
| 1777761015 | 10° C | 56% | 773.7 hPa | 0 mm | - | - | - |
| 1777760151 | 10.56° C | 54% | 773 hPa | 0 mm | - | - | - |
| 1777759242 | 10.56° C | 52% | 773.8 hPa | 0 mm | - | - | - |
| 1777758327 | 11.11° C | 50% | 773.8 hPa | 0 mm | - | - | - |
| 1777757416 | 11.11° C | 47% | 773.8 hPa | 0 mm | - | - | - |
| 1777756551 | 11.67° C | 44% | 773 hPa | 0 mm | - | - | - |
| 1777755642 | 11.67° C | 42% | 772.3 hPa | 0 mm | - | - | - |
| 1777754727 | 12.22° C | 40% | 773.1 hPa | 0 mm | - | - | - |
| 1777753816 | 12.78° C | 37% | 774 hPa | 0 mm | - | - | - |
| 1777752952 | 13.33° C | 34% | 773.2 hPa | 0 mm | - | - | - |
| 1777752055 | 13.89° C | 30% | 773.2 hPa | 0 mm | - | - | - |
* Rain latest hour (hover to see other rain measurements)
** Current wind speed in m/s (hover to see current wind gust speed)